Home > Weather > Atascadero > Past weeks

Flag for USA Past Weather in Atascadero, California, USA — Yesterday and Last 2 Weeks

Now
56 °F

Clear.


Feels Like: 52 °F
Forecast: 48 / 72 °F
Wind: 14 mph from Northwest

Location: Paso Robles Municipal Airport

Current Time: May 25, 2016 at 11:57:22 PM

Latest Report: May 25, 2016 at 10:53 PM


Visibility: 10 mi

Pressure: 30.11 "Hg

Humidity: 72%

Dew Point: 47 °F

Location of AtascaderoLocation

Past Weather in Atascadero — Graph

°F

Atascadero Temperature Yesterday

Maximum temperature yesterday: 70 °F (at 2:53 PM)
Minimum temperature yesterday: 53 °F (at 12:53 AM)
Average temperature yesterday: 59 °F

High & Low Weather Summary for the Past Weeks

 TemperatureHumidityPressure
High93 °F (May 18, 1:53 PM)97% (May 12, 6:53 AM)30.11 "Hg (May 12, 6:53 AM)
Low40 °F (May 21, 5:53 AM)14% (May 18, 1:53 PM)29.77 "Hg (May 19, 5:53 PM)
Average62 °F61%29.95 "Hg
* Reported May 10 9:53 PM — May 25 9:53 PM, Atascadero, Weather by CustomWeather, © 2016

Note: Actual official high and low records may vary slightly from our data, if they occured in-between our weather recording intervals... More about our weather records

Advertising

Atascadero Weather History for the Previous 24 Hours

Scroll right to see more
 ConditionsComfort  
Time TempWeatherWind HumidityBarometerVisibility
9:53 PM
Wed, May 25
57 °FClear.20 mph69%30.10 "Hg10 mi
8:53 PM61 °FSunny.16 mph62%30.08 "Hg10 mi
7:53 PM66 °FPassing clouds.14 mph50%30.06 "Hg10 mi
6:53 PM70 °FSunny.14 mph42%30.04 "Hg10 mi
5:53 PM68 °FSunny.15 mph51%30.03 "Hg10 mi
4:53 PM72 °FSunny.20 mph41%30.02 "Hg10 mi
3:53 PM74 °FSunny.16 mph41%30.03 "Hg10 mi
2:53 PM74 °FSunny.15 mph41%30.04 "Hg10 mi
1:53 PM74 °FSunny.13 mph40%30.05 "Hg10 mi
12:53 PM72 °FSunny.6 mph35%30.07 "Hg10 mi
11:53 AM68 °FSunny.6 mph44%30.09 "Hg10 mi
10:53 AM63 °FSunny.No wind56%30.09 "Hg10 mi
9:53 AM60 °FPassing clouds.9 mph62%30.10 "Hg10 mi
8:53 AM56 °FOvercast.12 mph72%30.10 "Hg10 mi
7:53 AM53 °FMostly cloudy.9 mph80%30.09 "Hg10 mi
6:53 AM52 °FMostly cloudy.7 mph83%30.07 "Hg10 mi
5:53 AM52 °FMostly cloudy.7 mph83%30.06 "Hg10 mi
4:53 AM53 °FOvercast.7 mph83%30.05 "Hg10 mi
3:53 AM52 °FPassing clouds.6 mph83%30.04 "Hg10 mi
2:53 AM51 °FPassing clouds.7 mph89%30.04 "Hg10 mi
1:53 AM51 °FPassing clouds.6 mph86%30.03 "Hg10 mi
12:53 AM53 °FPassing clouds.9 mph83%30.05 "Hg10 mi
11:53 PM
Tue, May 24
54 °FOvercast.7 mph80%30.05 "Hg10 mi
Weather by CustomWeather, © 2016

See weather overviewHow to use our weather pages